Simultaneous Nadir Overpasses (SNOs) Predictions

Prediction of SNOs between METOP-B and NOAA-19 Satellite Orbit:

Table of predicted SNOs for the next 14.0 days since TLE Epoch: 5/22/2015
Index Date (METOP-B) Time (METOP-B) Lat,Lon (METOP-B) SZA (METOP-B ) Date (NOAA-19) Time (NOAA-19) Lat,Lon (NOAA-19) SZA (NOAA-19 ) Distance(km) Time Diff (sec)
1 06/01/2015 04:00:55 75.42, 118.58 53.34 06/01/2015 03:59:49 75.43, 115.46 53.39 87.30 66
2 06/01/2015 04:51:48 -74.88, -75.67 127.20 06/01/2015 04:50:34 -74.87, -75.56 127.20 3.20 74
3 06/01/2015 05:42:28 74.87, 91.64 52.79 06/01/2015 05:41:40 74.89, 91.62 52.81 1.91 48
4 06/01/2015 06:33:10 -74.85,-101.08 127.23 06/01/2015 06:32:36 -74.84,-100.98 127.24 3.03 34
5 06/01/2015 07:23:50 74.85, 66.24 52.76 06/01/2015 07:23:42 74.86, 66.21 52.77 1.31 8
6 06/01/2015 08:14:32 -74.83,-126.48 127.27 06/01/2015 08:14:38 -74.81,-126.40 127.29 3.16 6
7 06/01/2015 09:05:12 74.83, 40.84 52.73 06/01/2015 09:05:44 74.82, 40.79 52.73 1.40 32
8 06/01/2015 09:55:54 -74.81,-151.89 127.30 06/01/2015 09:56:41 -74.83,-151.96 127.28 3.04 47
9 06/01/2015 10:46:34 74.80, 15.43 52.70 06/01/2015 10:47:46 74.79, 15.37 52.68 2.09 72
10 06/01/2015 11:37:26 -74.30,-178.58 127.80 06/01/2015 11:38:33 -74.32,-176.05 127.81 75.94 67




NCC Satellite Simultaneous Nadir Overpasses (SNOs) Prediction Service
